Lexington Weather

Lexington, Massachusetts, USA

44°F
1/23/2020 12:42pm 
  • Lexington Conditions: Mostly cloudy
  • Temperature: 43.9°F / 6.6°CWarmer 3.4°F than last hour.
  • Dew Point: 21.2°FDecreased 0.5°Fsince last hour.
  • Relative Humidity: 40%Decreased 7.0% since last hour.
  • Wind: Calm, 10-min avg: Calm, gust: None
  • Barometer: 30.29 inFalling 0.02  inHg/hr Falling Slowly
  • Visibility: 10 miles
  • Rain Today: 0.02 in
  •   

Regional Weather Roundup
for Boston / Norton, MA

        
000
ASUS41 KBOX 231400
RWRBOX

REGIONAL WEATHER ROUNDUP
NATIONAL WEATHER SERVICE BOSTON/NORTON MA
900 AM EST THU JAN 23 2020

NOTE:  "FAIR" INDICATES FEW OR NO CLOUDS BELOW 12,000 FEET WITH NO 
SIGNIFICANT WEATHER AND/OR OBSTRUCTIONS TO VISIBILITY.

MAZALL-231500-
EASTERN MASSACHUSETTS
  
CITY           SKY/WX    TMP DP  RH WIND       PRES   REMARKS
BOSTON         FAIR      32  17  54 SW14      30.37F WCI  22          
BEVERLY        FAIR      28  17  63 SW5       30.35F WCI  23          
LAWRENCE       FAIR      21  16  81 SW3       30.37F                  
BEDFORD        FAIR      23  15  71 CALM      30.36S                  
BLUE HILL        N/A     27  16  63 SW13      30.34R WCI  16          
NORWOOD        FAIR      30  21  69 CALM      30.39S                  
MARSHFIELD     NOT AVBL                                               
PLYMOUTH       FAIR      32  23  69 SW7       30.39F WCI  26          
TAUNTON        FAIR      30  24  78 VRB3      30.40S                  
NEW BEDFORD    FAIR      31  26  82 SE3       30.41S                  
$$

MAZALL-231500-
CAPE COD AND THE ISLANDS
  
CITY           SKY/WX    TMP DP  RH WIND       PRES   REMARKS
FALMOUTH       SUNNY     32  32 100 CALM      30.41R                  
HYANNIS        FAIR      38  31  76 SW7       30.40S                  
CHATHAM        FAIR      38  34  85 SW6       30.42S                  
PROVINCETOWN   FAIR      37  31  78 SW14      30.41S WCI  28          
NANTUCKET      FAIR      39  32  76 SW9       30.42S                  
MARTHAS VNYRD  FAIR      37  31  78 SW3       30.41S                  
$$
 
MAZALL-231500-
CENTRAL AND WESTERN MASSACHUSETTS
  
CITY           SKY/WX    TMP DP  RH WIND       PRES   REMARKS
WORCESTER      FAIR      29  14  53 W15       30.32F WCI  18          
FITCHBURG      FAIR      18  14  84 CALM      30.36S FOG              
ORANGE         FAIR       7   5  91 CALM      30.38S                  
SPRINGFIELD    MOSUNNY   12   8  86 CALM      30.39S                  
WESTFIELD      NOT AVBL                                               
NORTH ADAMS    FAIR      13   9  84 CALM      30.38F                  
PITTSFIELD     FAIR      15  10  80 CALM      30.32F                  
$$
 
RIZALL-231500-
RHODE ISLAND
  
CITY           SKY/WX    TMP DP  RH WIND       PRES   REMARKS
PROVIDENCE     PTSUNNY   29  20  69 SW3       30.41S                  
NEWPORT        FAIR      36  27  69 CALM      30.41R                  
BLOCK ISLAND   FAIR      37  22  54 W9        30.42R WCI  30          
SMITHFIELD     FAIR      29  18  63 SW6       30.38R WCI  23          
WESTERLY       FAIR      27  19  72 CALM      30.42S                  
$$
 
CTZALL-231500-
CONNECTICUT
  
CITY           SKY/WX    TMP DP  RH WIND       PRES   REMARKS
BRADLEY INTL   FAIR      19  15  84 CALM      30.40S                  
HARTFORD       FAIR      20  18  92 CALM      30.42S                  
BRIDGEPORT     FAIR      31  21  66 CALM      30.42S                  
DANBURY        FAIR      18  14  84 CALM      30.40S                  
GROTON         FAIR      29  24  82 CALM      30.41S                  
NEW HAVEN      FAIR      28  23  81 CALM      30.41S                  
CHESTER        NOT AVBL                                               
MERIDEN        FAIR      21  19  92 MISG      30.41S                  
WILLIMANTIC    FAIR      13  10  88 CALM      30.42S                  
OXFORD         FAIR      30  22  72 CALM      30.38S                  
$$

MEZ002-015-021-024-NHZ003-005-008-011-012-014-VTZ005-008-231500-
NORTHERN NEW ENGLAND
  
CITY           SKY/WX    TMP DP  RH WIND       PRES   REMARKS
PORTLAND ME    FAIR      22  13  68 CALM      30.35R                  
BANGOR ME      PTSUNNY   15  14  95 SW3       30.31S                  
CONCORD NH     FAIR      12  10  92 CALM      30.36R                  
MANCHESTER NH  FAIR      16  10  77 CALM      30.34F                  
NASHUA NH      FAIR      16  12  84 NW5       30.37S WCI   9          
PORTSMOUTH NH  MOSUNNY   23  14  69 CALM      30.33F                  
JAFFREY NH     FAIR      21  14  74 S8        30.31S WCI  11          
KEENE NH       FLURRIES  13   9  84 CALM      30.39R                  
BURLINGTON VT  FAIR      19  14  81 SE3       30.33S                  
MT. WASHINGTON PTSUNNY   23   0  36 W38         N/A  WCI   4          
$$

NYZ052-076-231500-
EASTERN NEW YORK
  
CITY           SKY/WX    TMP DP  RH WIND       PRES   REMARKS
ALBANY         PTSUNNY   18  12  77 CALM      30.40S                  
NEW YORK CITY  PTSUNNY   37  19  48 S7        30.41S WCI  32          
$$
 
ANZALL-231500-
MARINE OBSERVATIONS
  
STATION/POSITION TIME  TEMP    WIND        PRES    VSBY  WAVE
                       AIR SEA DIR/SP/G                  HT/PER
                 (UTC) (F)     (DEG/KT/KT) (MB)    (MI)  (FT/S)
BOSTON BUOY      1250   36 42  200/ 16/ 17 1027.7          2/ 3
BUZZARDS BAY     1300   38     250/ 12/ 13 1030.1R
NANTUCKET SOUND  1340                      1030.4
MASS BAY-STELLWA 1304   37 42  250/ 14/ 17 1026.1F  1 7/8  2/ 3
ISLE OF SHOALS   1300   30     240/ 15/ 16 1027.5R
S OF BLOCK IS    1330      45                N/A           2/ 9
$$

......................KEY.........................
  SKY/WX - SKY CONDITION/PRESENT WEATHER
  TMP    - TEMPERATURE IN FAHRENHEIT
  DWPT   - DEWPOINT IN FAHRENHEIT
  RH     - RELATIVE HUMIDITY IN PERCENT
  WIND   - DIRECTION AND SPEED IN MPH
  PRES   - MEAN SEA LEVEL PRESSURE IN INCHES OF HG
  WCI    - WIND CHILL INDEX
  VSB    - VISIBILITY IN MILES
  HX     - HEAT INDEX
  TC     - TEMPERATURE IN CELSIUS
  VRB    - VARIABLE WIND DIRECTION
  N/A    - NOT AVAILABLE
  
      

Other recent Regional Weather Roundups

Thu Jan 23, 12:10pm

Thu Jan 23, 12:01pm

Thu Jan 23, 11:10am

Thu Jan 23, 11:00am

Thu Jan 23, 10:10am

Thu Jan 23, 10:00am

Thu Jan 23, 9:10am

Thu Jan 23, 8:10am

Thu Jan 23, 8:00am

Thu Jan 23, 7:10am

Thu Jan 23, 7:01am

Thu Jan 23, 6:10am

Thu Jan 23, 6:00am

Thu Jan 23, 5:10am

Thu Jan 23, 5:00am

Thu Jan 23, 4:10am

Thu Jan 23, 4:01am

Thu Jan 23, 3:10am

Thu Jan 23, 3:00am

Thu Jan 23, 2:10am

Thu Jan 23, 2:00am

Thu Jan 23, 1:10am

Thu Jan 23, 1:00am

Thu Jan 23, 12:10am

Thu Jan 23, 12:00am

Wed Jan 22, 11:10pm

Wed Jan 22, 11:01pm

Wed Jan 22, 10:10pm

Wed Jan 22, 10:00pm

Wed Jan 22, 9:10pm

Wed Jan 22, 9:00pm

Wed Jan 22, 8:10pm

Wed Jan 22, 8:01pm

Wed Jan 22, 7:10pm

Wed Jan 22, 7:00pm

Wed Jan 22, 6:10pm

Wed Jan 22, 6:01pm

Wed Jan 22, 5:10pm

Wed Jan 22, 5:00pm

Wed Jan 22, 4:10pm

Wed Jan 22, 4:00pm

Wed Jan 22, 3:10pm

Wed Jan 22, 3:00pm

Wed Jan 22, 2:10pm

Wed Jan 22, 2:00pm

Wed Jan 22, 1:10pm

Wed Jan 22, 1:00pm

Wed Jan 22, 12:10pm

Wed Jan 22, 12:00pm

Wed Jan 22, 11:10am

Wed Jan 22, 11:00am

Wed Jan 22, 10:10am

Wed Jan 22, 10:01am

Wed Jan 22, 9:10am

Wed Jan 22, 9:00am

Wed Jan 22, 8:10am

Wed Jan 22, 8:00am

Wed Jan 22, 7:10am

Wed Jan 22, 7:00am

Wed Jan 22, 6:10am

Wed Jan 22, 6:00am

Wed Jan 22, 5:10am

Wed Jan 22, 5:00am

Wed Jan 22, 4:10am

Wed Jan 22, 4:00am

Wed Jan 22, 3:10am

Wed Jan 22, 3:01am

Wed Jan 22, 2:10am

Wed Jan 22, 2:00am

Wed Jan 22, 1:10am

Wed Jan 22, 1:00am

Wed Jan 22, 12:10am

Wed Jan 22, 12:00am

Tue Jan 21, 11:10pm

Tue Jan 21, 11:00pm

Tue Jan 21, 10:10pm

Tue Jan 21, 10:00pm

Tue Jan 21, 9:10pm

Tue Jan 21, 9:01pm

Tue Jan 21, 8:10pm

Tue Jan 21, 8:00pm

Tue Jan 21, 7:10pm

Tue Jan 21, 7:00pm

Tue Jan 21, 6:10pm

Tue Jan 21, 6:01pm

Tue Jan 21, 5:10pm

Tue Jan 21, 5:00pm

Tue Jan 21, 4:10pm

Tue Jan 21, 4:00pm

Tue Jan 21, 3:10pm

Tue Jan 21, 3:01pm

Tue Jan 21, 2:10pm

Tue Jan 21, 2:00pm

Tue Jan 21, 1:10pm

Tue Jan 21, 1:00pm

Tue Jan 21, 12:10pm

Tue Jan 21, 12:00pm

Tue Jan 21, 11:10am

Tue Jan 21, 11:00am

Tue Jan 21, 10:10am

Tue Jan 21, 10:00am

Tue Jan 21, 9:10am

Tue Jan 21, 9:00am

Tue Jan 21, 8:10am

Tue Jan 21, 8:00am

Tue Jan 21, 7:10am

Tue Jan 21, 7:00am

Tue Jan 21, 6:10am

Tue Jan 21, 6:00am

Tue Jan 21, 5:10am

Tue Jan 21, 5:00am

Tue Jan 21, 4:10am

Tue Jan 21, 4:00am

Tue Jan 21, 3:10am

Tue Jan 21, 3:00am

Tue Jan 21, 2:10am

Tue Jan 21, 2:01am

Tue Jan 21, 1:10am

Tue Jan 21, 1:00am

Tue Jan 21, 12:10am

Tue Jan 21, 12:00am

Mon Jan 20, 11:10pm

Mon Jan 20, 11:00pm

Mon Jan 20, 10:10pm

Mon Jan 20, 10:00pm

Mon Jan 20, 9:10pm

Mon Jan 20, 9:00pm

Mon Jan 20, 8:10pm

Mon Jan 20, 8:00pm

Mon Jan 20, 7:10pm

Mon Jan 20, 7:00pm

Mon Jan 20, 6:10pm

Mon Jan 20, 6:00pm

Mon Jan 20, 5:10pm

Mon Jan 20, 5:00pm

Mon Jan 20, 4:10pm

Mon Jan 20, 4:01pm

Mon Jan 20, 3:10pm

Mon Jan 20, 3:00pm

Mon Jan 20, 2:10pm

Mon Jan 20, 2:00pm

Mon Jan 20, 1:10pm

Mon Jan 20, 1:00pm

Meta data:

ID: 627e07f9-15fb-4e07-89d5-cc0982649a1a
Link: https://api.weather.gov/products/627e07f9-15fb-4e07-89d5-cc0982649a1a